Change the Weather History Date:

Friday, July 5, 2013

  Actual Average Record
Temperature  
Mean Temperature 82 °F -  
Max Temperature 93 °F 94 °F 110 °F (2007)
Min Temperature 70 °F 63 °F 48 °F (1949)
Degree Days  
Heating Degree Days 0 0  
Month to date heating degree days 0 0  
Since 1 June heating degree days 0 3  
Since 1 July heating degree days 0 0  
Cooling Degree Days 17 13  
Month to date cooling degree days 119 65  
Year to date cooling degree days 721 563  
Since 1 June cooling degree days 475 364  
Growing Degree Days 31 (Base 50)    
Moisture  
Dew Point 51 °F    
Average Humidity 34    
Maximum Humidity 41    
Minimum Humidity 26    
Precipitation  
Precipitation 0.00 in 0.00 in 0.01 in (1984)
Month to date precipitation 0.00 0.00  
Year to date precipitation 3.21 8.75  
Since 1 July precipitation 0.00 0.00  
Snow  
Snow 0.00 in - - ()
Month to date snowfall 0.0  
Since 1 June snowfall 0.0  
Since 1 July snowfall 0.0  
Snow Depth -    
Sea Level Pressure  
Sea Level Pressure 29.67 in    
Wind  
Wind Speed 7 mph (North)    
Max Wind Speed 14 mph    
Max Gust Speed 17 mph    
Visibility 10 miles    
Events      
T = Trace of Precipitation, MM = Missing Value Source: NWS Daily Summary

Daily Weather History Graph

Daily Weather History Graph

Search for Another Location

Airport or City:

Trip Planner

Search our weather history database for the weather conditions in past years. The results will help you decide how hot, cold, wet, or windy it might be!

Date:

Astronomy

Jul. 05, 2013 Rise Set
Actual Time 5:48 AM PDT 8:28 PM PDT
Civil Twilight 5:17 AM PDT 8:59 PM PDT
Nautical Twilight 4:38 AM PDT 9:37 PM PDT
Astronomical Twilight 3:55 AM PDT 10:21 PM PDT
Moon 3:50 AM PDT (7/5) 6:28 PM PDT (7/5)
Length of Visible Light 15h 42m
Length of Day
14h 40m
Waning Crescent, 6% of the Moon is Illuminated
Jul 5
Waning Crescent
Jul 8
New
Jul 15
First Quarter
Jul 22
Full
Jul 29
Last Quarter

Hourly Weather History & Observations

Time (PDT) Temp. Heat Index Dew Point Humidity Pressure Visibility Wind Dir Wind Speed Gust Speed Precip Events Conditions
12:53 AM 82.9 °F - 52.0 °F 34% 29.63 in 10.0 mi NNE 6.9 mph - N/A   Clear
1:53 AM 81.0 °F - 48.0 °F 31% 29.64 in 10.0 mi North 9.2 mph - N/A   Clear
2:53 AM 78.1 °F - 46.9 °F 33% 29.64 in 10.0 mi NNW 4.6 mph - N/A   Clear
3:53 AM 75.9 °F - 46.0 °F 35% 29.64 in 10.0 mi WNW 4.6 mph - N/A   Clear
4:53 AM 73.0 °F - 45.0 °F 37% 29.65 in 10.0 mi North 4.6 mph - N/A   Clear
5:53 AM 71.1 °F - 45.0 °F 39% 29.67 in 10.0 mi NNE 5.8 mph - N/A   Clear
6:53 AM 71.1 °F - 46.0 °F 41% 29.68 in 10.0 mi NNW 3.5 mph - N/A   Clear
7:53 AM 73.0 °F - 48.0 °F 41% 29.70 in 10.0 mi NE 3.5 mph - N/A   Clear
8:53 AM 75.0 °F - 48.9 °F 40% 29.71 in 10.0 mi ENE 4.6 mph - N/A   Clear
9:53 AM 79.0 °F - 50.0 °F 36% 29.71 in 10.0 mi Variable 3.5 mph - N/A   Clear
10:53 AM 82.0 °F - 52.0 °F 35% 29.71 in 10.0 mi NE 5.8 mph - N/A   Clear
11:53 AM 86.0 °F 84.0 °F 53.1 °F 32% 29.71 in 10.0 mi NNW 6.9 mph - N/A   Clear
12:53 PM 87.1 °F 84.9 °F 53.1 °F 31% 29.70 in 10.0 mi Variable 3.5 mph - N/A   Clear
1:53 PM 90.0 °F - 52.0 °F 27% 29.69 in 10.0 mi Calm Calm - N/A   Clear
2:53 PM 91.0 °F - 52.0 °F 26% 29.68 in 10.0 mi North 12.7 mph - N/A   Clear
3:53 PM 91.9 °F 89.5 °F 53.1 °F 27% 29.65 in 10.0 mi North 9.2 mph - N/A   Clear
4:53 PM 91.9 °F 89.5 °F 53.1 °F 27% 29.64 in 10.0 mi North 8.1 mph - N/A   Clear
5:53 PM 90.0 °F 87.5 °F 53.1 °F 28% 29.63 in 10.0 mi NW 10.4 mph - N/A   Clear
6:53 PM 86.0 °F 84.5 °F 55.0 °F 35% 29.63 in 10.0 mi NNW 15.0 mph - N/A   Clear
7:53 PM 82.0 °F 81.4 °F 55.0 °F 39% 29.64 in 10.0 mi NW 12.7 mph - N/A   Clear
8:53 PM 77.0 °F - 55.0 °F 47% 29.66 in 10.0 mi NNW 10.4 mph - N/A   Clear
9:53 PM 73.0 °F - 53.1 °F 49% 29.68 in 10.0 mi NNW 8.1 mph - N/A   Clear
10:53 PM 72.0 °F - 53.1 °F 51% 29.70 in 10.0 mi NNW 6.9 mph - N/A   Clear
11:53 PM 69.1 °F - 53.1 °F 57% 29.70 in 10.0 mi NNW 8.1 mph - N/A   Clear